Weather in Asheville

United States     35°36′02″N   82°33′14″W
temp.,
°C
wind,
m/s
gust,
m/s
humid.,
%
clouds,
%
prec.,
mm/h
press.,
hPa
HPBL,
m
26 may, thu
thu2623:00+15se21093100 0.0 1022546
02:00+15se31298100 0.7 1021732
05:00+14se31199100 1.3 1021709
08:00+14ese31099100 1.9 1022490
11:00+14se31299100 0.7 1021597
14:00+15ese41499100 7.4 1018650
17:00+17se31098100 5.8 1016533
20:00+17sse61598100 10.5 10151168
27 may, fri
fri2723:00+15se31198100 17.4 1016654
02:00+14se2399100 18.1 1014109
05:00+14sse1298100 0.2 101345
08:00+14sse11960 0.2 1014130
11:00+21ssw4104825 0.0 10122052
14:00+23ssw6104561 0.0 10102415
17:00+22sw5105051 1.1 10092019
20:00+16nw25795 1.5 1011144
28 may, sat
sat2823:00+11nnw22981 0.0 101234
02:00+10nnw239816 0.0 101271
05:00+10nw229918 0.0 101258
08:00+12nw289276 0.0 1014568
11:00+17nnw576859 0.0 10141000
14:00+22nnw45490 0.0 10131231
17:00+23nnw34460 0.0 1012951
20:00+17nw24773 0.0 101498
29 may, sun
sun2923:00+14nw119011 0.0 101619
02:00+12n01950 0.0 101610
05:00+12e00940 0.0 101710
08:00+15se11850 0.0 101983
11:00+23sse34541 0.0 10181291
14:00+26sse444112 0.0 10171801
17:00+26sse444292 0.0 10161554
20:00+20se27735 0.0 1018153
30 may, mon
mon3023:00+16e01851 0.0 102011
02:00+14nnw11870 0.0 102111
05:00+13ese00890 0.0 102110
08:00+17nnw01760 0.0 102361
11:00+26w01490 0.0 1023904
14:00+30w11350 0.0 10212072
17:00+29s11343 0.0 10192144
20:00+22se11760 0.0 102112